Starlink 30066

operational
NORAD ID: 56704 Int'l Des: 2023-067 Owner: SPXS Country: US Constellation: starlink
LEOCIRCULAR

关于 Starlink 30066

正在加载描述...

实时位置

正在加载3D地球...

即将过境

高度历史

Altitude vs Time

uPlot chart will show altitude changes over time

两行轨道根数

1 56704U 23067S 25258.39101245 .00002597 00000-0 20711-3 0 9994
2 56704 43.0021 146.7026 0001090 266.4133 93.6585 15.02559624129293
Epoch: Sep 15, 2025 • Age: 24 hours

当前状态

高度 558.8 km
速度 7.58 km/s
星下点 -0.25°S, 5.72°E
发射日期 May 19, 2023
运行时间 2.3 years
类型 internet

技术详情

分类 Payload
质量 730.00 kg
干质量 700.00 kg
总质量 730.00 kg
长度 0.30 m
直径 4.10 m
跨度 29.00 m
形状 Box + pan
制造商 SPXS
平台类型 Starlink V2M
阶段状态 In Orbit
所有者/国家 SPXS/US

大型星座

Loading constellations...